GALAXY 14 (G-14)

Last updated on Dec. 11, 2019, 4:28 a.m. UTC

1 28790U 05030A   19344.13389120  .00000057  00000-0  00000+0 0  9993
2 28790   0.0198   0.8654 0002787 255.0810 105.8468  1.00273093 52435
UTC
Height (km)
Latitude
Longitude
Inclination
Orbital Period
UTC large
Height (km)
Speed (km/s)
/
Latitude / Longitude
Inclination (degrees)
Orbital Period (minutes)
Azimuth
Elevation
Range (km)
Doppler Factor
iOS Compass Heading
iOS Angle

Next 30 passes for location: Hong Kong

Rise time Rise Azimuth (degrees) Set time Set Azimuth (degrees) Duration Max altitude (degrees)

No matching passes for this satellites